N5CNB Weather Reports


Display with metric or nautical units.
time (UTC)temp
F
wind
direction
speed
MPH
gust
MPH
rain 1hr
in
rain 24hr
in
rain mn
in
humidity
%
barometer
mb
20260905043030 78 143 0.0 0.0 0.00 0.20 0.20 87 1014.4
20260905041505 79 141 0.0 3.0 0.00 0.20 0.20 86 1014.4
20260905040019 79 155 0.0 2.0 0.00 0.20 0.20 86 1014.4
20260905034525 79 169 1.0 3.0 0.00 0.20 0.20 85 1014.4
20260905033027 80 136 0.0 2.0 0.00 0.20 0.20 84 1014.5
20260905031528 80 122 0.0 4.0 0.00 0.20 0.20 84 1014.4
20260905030010 80 122 2.0 8.0 0.00 0.20 0.20 83 1014.3
20260905024512 80 151 1.0 6.0 0.00 0.20 0.20 83 1014.3
20260905023019 79 79 2.0 4.0 0.00 0.20 0.20 85 1014.0
20260905021535 79 72 0.0 0.0 0.00 0.20 0.20 87 1013.7
20260905020031 80 72 0.0 0.0 0.00 0.20 0.20 86 1013.6
20260905014509 80 72 0.0 0.0 0.00 0.20 0.20 85 1013.3
20260905013014 81 70 0.0 0.0 0.00 0.20 0.20 85 1013.1
20260905011518 81 88 0.0 0.0 0.00 0.20 0.20 83 1013.2
20260905010030 82 78 0.0 0.0 0.00 0.20 0.20 83 1013.1
20260905004531 83 84 0.0 2.0 0.00 0.20 0.20 81 1012.8
20260905003008 85 91 0.0 3.0 0.00 0.20 0.20 79 1012.7
20260905001512 86 149 0.0 4.0 0.00 0.20 0.20 77 1012.7
20260905000019 87 139 1.0 6.0 0.00 0.20 0.20 76 1012.5
20260904234526 87 137 2.0 6.0 0.00 0.20 0.20 75 1012.6
20260904233031 88 188 4.0 8.0 0.00 0.20 0.20 74 1012.7
20260904231511 89 132 5.0 11.0 0.00 0.20 0.20 71 1012.5
20260904230016 89 72 3.0 6.0 0.00 0.20 0.20 69 1012.5
20260904224524 89 96 0.0 6.0 0.00 0.20 0.20 72 1012.6
20260904223038 88 115 3.0 5.0 0.00 0.20 0.20 74 1012.7
20260904221543 88 97 3.0 6.0 0.00 0.21 0.20 76 1012.9
20260904220013 87 129 1.0 5.0 0.00 0.21 0.20 78 1013.1
20260904214519 87 21 1.0 3.0 0.00 0.21 0.20 79 1013.4
20260904213027 85 8 0.0 5.0 0.00 0.21 0.20 84 1013.7
20260904211534 84 235 1.0 3.0 0.01 0.21 0.20 85 1013.5
20260904210034 83 229 0.0 0.0 0.01 0.21 0.20 87 1013.8
20260904204515 81 224 1.0 3.0 0.02 0.34 0.20 88 1014.0
20260904203029 80 77 0.0 0.0 0.06 0.63 0.20 89 1013.9
20260904201530 79 70 0.0 2.0 0.14 0.88 0.19 88 1013.8
20260904200031 77 88 0.0 5.0 0.19 0.91 0.19 86 1014.0
20260904194618 77 72 2.0 7.0 0.18 0.90 0.18 85 1014.5
20260904193032 79 101 7.0 17.0 0.14 0.86 0.14 84 1014.6
20260904191523 84 122 7.0 12.0 0.05 0.77 0.05 82 1015.0
20260904190027 87 140 6.0 12.0 0.00 0.72 0.00 75 1014.4
20260904184507 87 79 6.0 11.0 0.00 0.72 0.00 76 1014.9
20260904183014 88 80 5.0 14.0 0.00 0.72 0.00 74 1015.1
20260904181520 88 77 4.0 14.0 0.00 0.72 0.00 72 1014.9
20260904180024 89 77 5.0 11.0 0.00 0.72 0.00 69 1015.2
20260904174531 89 103 4.0 11.0 0.00 0.72 0.00 69 1015.2
20260904173014 90 124 3.0 8.0 0.00 0.72 0.00 66 1015.5
20260904171512 91 261 3.0 9.0 0.00 0.72 0.00 66 1015.3
20260904170018 90 146 1.0 9.0 0.00 0.72 0.00 67 1015.6
20260904164529 88 74 5.0 9.0 0.00 0.72 0.00 69 1015.7
20260904163027 88 120 2.0 5.0 0.00 0.72 0.00 74 1015.8
20260904161536 88 198 0.0 7.0 0.00 0.72 0.00 76 1015.7
20260904160033 87 112 2.0 5.0 0.00 0.72 0.00 78 1015.5
20260904154523 86 253 0.0 4.0 0.00 0.72 0.00 80 1015.3
20260904153027 85 265 0.0 3.0 0.00 0.72 0.00 84 1015.5
20260904151541 83 105 1.0 4.0 0.00 0.72 0.00 85 1015.4
20260904150036 84 205 2.0 5.0 0.00 0.72 0.00 85 1015.4
20260904144533 84 201 1.0 5.0 0.00 0.72 0.00 85 1015.3
20260904143023 82 75 1.0 4.0 0.00 0.72 0.00 87 1015.2
20260904141536 81 76 1.0 5.0 0.00 0.72 0.00 89 1015.3
20260904140031 80 98 1.0 4.0 0.00 0.72 0.00 90 1015.1
20260904134534 80 88 0.0 3.0 0.00 0.72 0.00 91 1015.0
20260904133022 79 195 0.0 0.0 0.00 0.72 0.00 92 1014.7
20260904131527 79 210 0.0 3.0 0.00 0.72 0.00 92 1014.4
20260904130006 78 212 0.0 3.0 0.00 0.72 0.00 92 1014.5
20260904124510 78 75 1.0 5.0 0.00 0.72 0.00 92 1014.4
20260904123019 78 210 0.0 0.0 0.00 0.72 0.00 92 1014.3
20260904121533 77 233 0.0 0.0 0.00 0.72 0.00 92 1014.0
20260904120033 77 233 0.0 0.0 0.00 0.72 0.00 92 1013.8
20260904114508 77 233 0.0 0.0 0.00 0.72 0.00 92 1013.8
20260904113029 78 233 0.0 0.0 0.00 0.72 0.00 92 1013.8
20260904111525 78 233 0.0 0.0 0.00 0.72 0.00 92 1013.8
20260904110028 78 233 0.0 0.0 0.00 0.72 0.00 92 1013.8
20260904104532 78 218 0.0 0.0 0.00 0.72 0.00 92 1013.9
20260904103030 78 218 0.0 0.0 0.00 0.72 0.00 91 1013.8
20260904101516 78 203 0.0 1.0 0.00 0.72 0.00 91 1013.8
20260904100025 78 227 0.0 0.0 0.00 0.72 0.00 91 1013.5
20260904094529 78 227 0.0 0.0 0.00 0.72 0.00 91 1013.5
20260904093033 78 227 0.0 0.0 0.00 0.72 0.00 91 1013.4
20260904091538 78 230 0.0 0.0 0.00 0.72 0.00 91 1013.4
20260904090019 78 144 0.0 0.0 0.00 0.72 0.00 91 1013.3
20260904084528 78 191 0.0 0.0 0.00 0.72 0.00 91 1013.4
20260904083028 78 180 0.0 1.0 0.00 0.72 0.00 91 1013.5
20260904081532 78 204 0.0 0.0 0.00 0.72 0.00 91 1013.5
20260904080044 78 243 0.0 0.0 0.00 0.72 0.00 91 1013.6
20260904074529 78 243 0.0 0.0 0.00 0.72 0.00 91 1013.7
20260904073035 78 243 0.0 1.0 0.00 0.72 0.00 91 1013.7
20260904071531 78 196 0.0 2.0 0.00 0.72 0.00 91 1013.9
20260904070034 78 142 0.0 4.0 0.00 0.72 0.00 90 1014.1
20260904064532 78 137 0.0 1.0 0.00 0.72 0.00 90 1013.9
20260904063025 78 139 0.0 2.0 0.00 0.72 0.00 90 1014.0
20260904061528 78 77 2.0 3.0 0.00 0.72 0.00 90 1013.9
20260904060031 78 154 0.0 0.0 0.00 0.72 0.00 90 1014.0
20260904054537 78 214 0.0 1.0 0.00 0.72 0.00 90 1013.9
20260904053033 78 201 1.0 3.0 0.00 0.72 0.00 90 1013.7
20260904051531 78 127 2.0 3.0 0.00 0.72 0.00 90 1013.7
20260904050032 78 191 1.0 5.0 0.00 0.72 0.00 90 1013.6
20260904044540 78 177 1.0 5.0 0.00 0.74 0.72 89 1013.8